Location: Kalamazoo
(42.2920°N, 85.5870°W)
Time: 08:48:59
(UTC-05:00)

Daily predictions for brighter satellites

Satellite Brightness Start Highest point End
(mag) Time Altitude Azimuth Time Altitude Azimuth Time Altitude Azimuth
Timation 2 Rocket 4.3 17:29:28 10° NNW 17:36:13 57° ENE 17:42:59 10° SE
BREEZE M DEB (TANK) 4.2 17:29:15 10° SW 17:40:46 46° SSE 17:44:22 10° ENE
NOSS 2-1 (D) 4.0 17:37:20 10° S 17:40:53 37° ESE 17:44:47 10° NE
COSMOS 2487 2.5 17:37:40 10° NNW 17:41:15 66° ENE 17:44:48 10° SSE
NOSS 2-1 (C) 4.0 17:38:01 10° S 17:41:34 37° ESE 17:45:29 10° NE
SPOT 3 Rocket 3.8 17:37:12 10° SE 17:42:08 47° ENE 17:47:05 10° N
USA 32 4.2 17:37:54 10° S 17:43:07 83° W 17:48:22 10° N
CZ-2C R/B 4.0 17:44:40 10° N 17:49:09 72° WNW 17:53:39 10° SSW
Cosmos 1812 3.1 17:47:32 10° SSW 17:51:22 68° W 17:55:14 10° N
Cosmos 1455 Rocket 3.5 17:47:43 10° NNW 17:52:08 69° W 17:56:32 10° S
Cosmos 1975 2.8 17:49:31 10° N 17:53:36 82° E 17:57:36 10° S
Cosmos 1238 Rocket 3.1 17:51:48 10° SSW 17:54:44 51° W 17:58:01 10° N
Nadezhda 3 Rocket 4.2 17:49:58 10° SSE 17:55:54 49° E 18:01:56 10° NNE
NOSS 2-1 (E) 3.6 17:56:27 10° SSW 18:00:13 54° ESE 18:04:23 11° NE
MOS 1 4.3 18:01:13 10° SSE 18:06:53 82° ENE 18:12:33 10° NNW
TIMED 4.5 18:02:47 10° SSW 18:07:09 87° ESE 18:11:33 10° NNE
Cosmos 1809 Rocket 4.4 18:01:25 10° N 18:07:35 76° E 18:13:40 10° SSE
BREEZE-M DEB (TANK) 4.3 18:00:13 10° WNW 18:07:36 36° N 18:11:00 14° NE
CZ-4 R/B 1.6 18:04:48 10° S 18:08:58 77° W 18:13:04 10° NNW
SL-8 R/B 4.3 18:05:20 10° W 18:09:54 43° N 18:13:33 15° ENE
GRACE-2 4.5 18:09:43 10° SSE 18:12:16 34° E 18:14:51 10° NNE
GRACE-1 4.4 18:10:07 10° SSE 18:12:42 35° E 18:15:17 10° NNE
Cosmos 2297 3.7 18:07:35 10° SSW 18:13:14 86° WNW 18:18:54 10° NNE
CZ-4 R/B 4.4 18:09:13 10° SSE 18:13:18 61° ENE 18:17:25 10° N
Thor Agena Rocket 3.6 18:08:09 10° NNE 18:13:25 82° ESE 18:18:42 10° SSW
IDEFIX/ARIANE 42P 2.6 18:10:23 10° SSE 18:15:35 88° WSW 18:20:48 10° NNW
MSX 3.8 18:10:03 10° SSE 18:15:42 65° ENE 18:21:24 10° N
COSMOS 2441 4.5 18:12:10 10° SSE 18:16:55 53° ENE 18:21:42 10° N
CZ-2C R/B 2.6 18:12:39 10° S 18:17:42 82° WSW 18:22:55 10° NNW
USA 234 3.3 18:11:47 12° NE 18:17:52 72° SE 18:24:23 10° SW
Cosmos 1726 Rocket 4.5 18:16:09 10° NNE 18:19:57 27° ENE 18:23:45 10° SE
Cosmos 2278 Rocket 3.5 18:15:20 10° SW 18:20:34 38° WNW 18:25:50 10° N
Cosmos 1666 3.3 18:19:12 10° N 18:22:48 35° ENE 18:26:23 10° SE
ASTRO F (AKARI) 4.2 18:22:58 13° NNE 18:25:38 61° ESE 18:28:47 10° S
Okean 1-7 Rocket 3.5 18:21:13 10° S 18:25:42 75° E 18:30:09 10° NNE
SMAP 3.5 18:23:58 10° S 18:28:34 64° W 18:33:13 10° NNW
Cosmos 1833 Rocket 2.9 18:28:22 10° NNW 18:34:00 73° WSW 18:39:36 10° SSE
SL-24 DEB 4.4 18:29:54 10° N 18:34:38 77° W 18:39:16 10° SSW
NOSS 3-4 (A) 3.7 18:27:46 10° NNW 18:34:47 73° NE 18:42:14 10° SE
NOSS 3-4 (C) 3.7 18:27:52 10° NNW 18:34:53 73° NE 18:42:19 10° SE
Cosmos 1934 Rocket 4.1 18:29:11 10° N 18:35:18 54° ENE 18:41:27 10° SSE
Tiangong 1 0.9 18:32:19 10° W 18:35:22 79° N 18:36:16 41° E
Cosmos 1346 Rocket 4.2 18:34:22 10° SW 18:37:59 37° WNW 18:41:37 10° N
Cosmos 1606 Rocket 3.7 18:35:40 10° N 18:40:03 51° ENE 18:44:24 10° SSE
ERBS 3.8 18:39:32 10° NNW 18:41:47 22° NNE 18:41:47 22° NNE
BREEZE M DEB (TANK) 3.3 18:38:58 10° NW 18:42:28 61° NNE 18:50:56 15° ESE
Cosmos 2082 Rocket 3.2 18:40:05 10° NW 18:45:33 50° WSW 18:51:00 10° S
Cosmos 407 Rocket 3.5 18:41:23 10° N 18:46:26 53° ENE 18:51:29 10° SE
Cosmos 1535 Rocket 4.4 18:41:31 10° N 18:47:49 85° E 18:54:01 10° S
Cosmos 921 Rocket 4.2 18:45:18 10° SW 18:49:22 42° WNW 18:53:33 10° N
Cosmos 1743 3.5 18:45:40 10° NNW 18:49:27 52° W 18:53:10 10° S
COSMO-SKYMED 1 2.4 18:46:16 14° NNE 18:50:02 76° ESE 18:54:22 10° S
Cosmos 2056 Rocket 3.4 18:45:41 10° SSW 18:51:02 81° ESE 18:55:04 18° NNE
Meteor 1-28 Rocket 3.4 18:51:38 44° E 18:51:53 45° E 18:55:30 10° S
Cosmos 1025 Rocket 3.0 18:47:53 10° S 18:52:16 88° W 18:56:37 11° N
ISS -1.2 18:51:48 10° NW 18:53:35 17° N 18:53:35 17° N
Cosmos 676 Rocket 4.1 18:54:05 10° N 18:59:09 49° ENE 19:02:36 19° SE
Cosmos 1954 Rocket 4.2 18:57:50 10° N 19:02:46 42° ENE 19:03:04 42° ENE
Cosmos 1624 Rocket 4.1 18:58:30 10° SSW 19:03:41 73° WNW 19:07:37 18° NNE
Cosmos 1484 Rocket 3.8 19:07:58 10° S 19:11:32 44° W 19:15:07 10° NNW
Cosmos 1821 Rocket 4.3 19:05:52 10° NNW 19:11:54 64° W 19:17:55 10° S
NOAA 12 3.9 19:10:45 10° SSE 19:16:00 79° ENE 19:21:17 10° N
Cosmos 1153 Rocket 4.4 19:10:52 10° N 19:16:55 54° ENE 19:22:53 10° SSE
BREEZE-M R/B 4.3 19:09:03 10° W 19:17:52 46° NNW 19:19:21 37° NNE
Cosmos 2058 Rocket 2.9 19:13:45 10° N 19:18:15 84° E 19:22:40 10° S
Cosmos 2369 Rocket 2.2 19:17:17 10° S 19:22:46 54° ESE 19:22:50 54° ESE
Cosmos 1605 Rocket 3.9 19:16:32 10° N 19:22:51 88° E 19:29:01 10° S
CZ-3A R/B 4.3 19:22:17 10° WNW 19:30:30 28° NNW 19:32:03 24° NNE
Okean 2 4.4 19:31:05 10° SSW 19:35:05 45° WNW 19:36:27 33° NNW
CZ-3B DEB 4.0 19:32:06 10° WNW 19:37:32 38° N 19:41:21 30° NE
Cosmos 1340 3.8 19:35:02 10° SSW 19:37:49 41° WSW 19:37:49 41° WSW
Cosmos 1452 Rocket 3.4 19:34:34 10° SSW 19:39:48 89° W 19:39:51 88° NNW
BREEZE-M DEB (TANK) 4.4 19:30:43 10° WNW 19:45:06 39° N 19:46:02 38° NNE
METEOR-M 4.4 19:41:24 10° S 19:46:42 66° WSW 19:52:02 10° NNW
Cosmos 1943 Rocket 4.1 19:42:20 10° S 19:43:25 16° SSE 19:43:25 16° SSE
GEOS 3 Rocket 4.0 19:53:18 53° NNW 19:53:18 53° NNW 19:57:11 10° NW
USA 234 4.0 19:59:08 37° N 20:00:37 42° NNW 20:06:41 10° W
Cosmos 1727 Rocket 4.4 19:56:39 10° SSW 20:02:45 59° W 20:06:10 27° N
FALCON 9 R/B 3.5 19:55:28 10° W 20:12:28 49° SSW 20:13:37 46° S
